Flag for Germany Weather past 2 weeks in Schweinfurt, Bavaria, Germany

Now
51 °F

Drizzle. Low clouds.


Feels Like: 49 °F
Forecast: 41 / 51 °F
Wind: 7 mph from West

Location: Wuerzburg

Current Time: Dec 18, 2014 at 7:02:23 PM

Latest Report: Dec 18, 2014 at 6:00 PM


Visibility: 11 mi

Pressure: 29.97 "Hg

Humidity: 97%

Dew point: 50 °F

Location of SchweinfurtLocation

Historic Weather in Schweinfurt — Graph

°F

Schweinfurt temperature yesterday

Maximum temperature yesterday: 42 °F (at 11:00 PM)
Minimum temperature yesterday: 33 °F (at 5:00 AM)
Average temperature yesterday: 37 °F

Past Weeks' High & Low Weather Summary

 TemperatureHumidityPressure
High51 °F (Dec 13, 2:00 AM)100% (Dec 4, 9:00 PM)30.48 "Hg (Dec 4, 9:00 PM)
Low26 °F (Dec 9, 4:00 AM)56% (Dec 15, 2:00 PM)29.65 "Hg (Dec 12, 7:00 PM)
Average39 °F92%30.05 "Hg
* Reported Dec 3 6:00 PM — Dec 18 6:00 PM, Schweinfurt, Weather by CustomWeather, © 2014

Note: Actual official high and low records may vary slightly from our data, if they occured in-between our weather recording intervals... More about our weather records

Advertising

Schweinfurt weather history for previous 24 hours

 ConditionsComfort  
Time TempWeatherWind HumidityBarometerVisibility
6:00 PM
Dec 18
51 °FDrizzle. Low clouds.7 mph97%29.97 "Hg11 mi
5:00 PM50 °FDrizzle. Low clouds.5 mph97%29.96 "Hg12 mi
4:00 PM51 °FOvercast.7 mph93%29.94 "Hg22 mi
3:00 PM51 °FLow clouds.8 mph93%29.93 "Hg16 mi
2:00 PM51 °FLow clouds.7 mph93%29.93 "Hg25 mi
1:00 PM50 °FDrizzle. Low clouds.8 mph95%29.94 "Hg5 mi
12:00 PM49 °FLow clouds.7 mph94%29.96 "Hg7 mi
11:00 AM48 °FLow clouds.7 mph95%29.96 "Hg14 mi
10:00 AM46 °FDrizzle. Low clouds.6 mph97%29.97 "Hg5 mi
9:00 AM46 °FLow clouds.6 mph95%29.97 "Hg16 mi
8:00 AM46 °FLow clouds.8 mph97%29.96 "Hg14 mi
7:00 AM46 °FLow clouds.7 mph97%29.96 "Hg16 mi
6:00 AM46 °FLow clouds.6 mph96%29.96 "Hg25 mi
5:00 AM45 °FLow clouds.6 mph96%29.95 "Hg43 mi
4:00 AM44 °FOvercast.5 mph96%29.96 "Hg43 mi
3:00 AM45 °FOvercast.6 mph93%29.94 "Hg43 mi
2:00 AM44 °FLow clouds.6 mph95%29.94 "Hg34 mi
1:00 AM43 °FLow clouds.5 mph97%29.92 "Hg19 mi
12:00 AM43 °FLow clouds.3 mph96%29.91 "Hg17 mi
11:00 PM
Dec 17
42 °FOvercast.8 mph95%29.88 "Hg22 mi
10:00 PM42 °FLow clouds.8 mph94%29.86 "Hg25 mi
9:00 PM42 °FOvercast.8 mph95%29.85 "Hg12 mi
8:00 PM41 °FLow clouds.6 mph95%29.82 "Hg25 mi
7:00 PM40 °FOvercast.6 mph94%29.80 "Hg25 mi
Weather by CustomWeather, © 2014

See weather overviewHow to use our weather pages